Year,Month,Day,Hour,Minute,Value (Times are PST for temperature in C)
2016,09,21,00,00,8.60
2016,09,21,00,01,8.60
2016,09,21,00,02,8.60
2016,09,21,00,03,8.60
2016,09,21,00,04,8.60
2016,09,21,00,05,8.60
2016,09,21,00,06,8.60
2016,09,21,00,07,8.60
2016,09,21,00,08,8.50
2016,09,21,00,09,8.50
2016,09,21,00,10,8.40
2016,09,21,00,11,8.40
2016,09,21,00,12,8.40
2016,09,21,00,13,8.40
2016,09,21,00,14,8.30
2016,09,21,00,15,8.30
2016,09,21,00,16,8.20
2016,09,21,00,17,8.20
2016,09,21,00,18,8.10
2016,09,21,00,19,8.10
2016,09,21,00,20,8.10
2016,09,21,00,21,8.10
2016,09,21,00,22,8.10
2016,09,21,00,23,8.10
2016,09,21,00,24,8.10
2016,09,21,00,25,8.10
2016,09,21,00,26,8.10
2016,09,21,00,27,8.10
2016,09,21,00,28,8.10
2016,09,21,00,29,8.10
2016,09,21,00,30,8.10
2016,09,21,00,31,8.20
2016,09,21,00,32,8.20
2016,09,21,00,33,8.20
2016,09,21,00,34,8.20
2016,09,21,00,35,8.20
2016,09,21,00,36,8.20
2016,09,21,00,37,8.20
2016,09,21,00,38,8.20
2016,09,21,00,39,8.10
2016,09,21,00,40,8.10
2016,09,21,00,41,8.00
2016,09,21,00,42,8.00
2016,09,21,00,43,8.00
2016,09,21,00,44,7.90
2016,09,21,00,45,7.90
2016,09,21,00,46,7.90
2016,09,21,00,47,7.90
2016,09,21,00,48,7.90
2016,09,21,00,49,7.90
2016,09,21,00,50,7.90
2016,09,21,00,51,7.90
2016,09,21,00,52,7.80
2016,09,21,00,53,7.80
2016,09,21,00,54,7.80
2016,09,21,00,55,7.70
2016,09,21,00,56,7.70
2016,09,21,00,57,7.70
2016,09,21,00,58,7.70
2016,09,21,00,59,7.70
2016,09,21,01,00,7.70
2016,09,21,01,01,7.70
2016,09,21,01,02,7.70
2016,09,21,01,03,7.70
2016,09,21,01,04,7.70
2016,09,21,01,05,7.70
2016,09,21,01,06,7.70
2016,09,21,01,07,7.70
2016,09,21,01,08,7.70
2016,09,21,01,09,7.70
2016,09,21,01,10,7.70
2016,09,21,01,11,7.70
2016,09,21,01,12,7.60
2016,09,21,01,13,7.60
2016,09,21,01,14,7.60
2016,09,21,01,15,7.60
2016,09,21,01,16,7.60
2016,09,21,01,17,7.60
2016,09,21,01,18,7.60
2016,09,21,01,19,7.60
2016,09,21,01,20,7.60
2016,09,21,01,21,7.50
2016,09,21,01,22,7.50
2016,09,21,01,23,7.50
2016,09,21,01,24,7.40
2016,09,21,01,25,7.40
2016,09,21,01,26,7.40
2016,09,21,01,27,7.40
2016,09,21,01,28,7.40
2016,09,21,01,29,7.40
2016,09,21,01,30,7.40
2016,09,21,01,31,7.40
2016,09,21,01,32,7.40
2016,09,21,01,33,7.40
2016,09,21,01,34,7.50
2016,09,21,01,35,7.50
2016,09,21,01,36,7.60
2016,09,21,01,37,7.60
2016,09,21,01,38,7.60
2016,09,21,01,39,7.60
2016,09,21,01,40,7.60
2016,09,21,01,41,7.60
2016,09,21,01,42,7.60
2016,09,21,01,43,7.60
2016,09,21,01,44,7.60
2016,09,21,01,45,7.60
2016,09,21,01,46,7.60
2016,09,21,01,47,7.60
2016,09,21,01,48,7.60
2016,09,21,01,49,7.60
2016,09,21,01,50,7.50
2016,09,21,01,51,7.50
2016,09,21,01,52,7.40
2016,09,21,01,53,7.40
2016,09,21,01,54,7.40
2016,09,21,01,55,7.40
2016,09,21,01,56,7.40
2016,09,21,01,57,7.30
2016,09,21,01,58,7.30
2016,09,21,01,59,7.30
2016,09,21,02,00,7.30
2016,09,21,02,01,7.30
2016,09,21,02,02,7.30
2016,09,21,02,03,7.30
2016,09,21,02,04,7.30
2016,09,21,02,05,7.30
2016,09,21,02,06,7.30
2016,09,21,02,07,7.30
2016,09,21,02,08,7.30
2016,09,21,02,09,7.30
2016,09,21,02,10,7.30
2016,09,21,02,11,7.30
2016,09,21,02,12,7.30
2016,09,21,02,13,7.30
2016,09,21,02,14,7.30
2016,09,21,02,15,7.30
2016,09,21,02,16,7.30
2016,09,21,02,17,7.30
2016,09,21,02,18,7.30
2016,09,21,02,19,7.20
2016,09,21,02,20,7.20
2016,09,21,02,21,7.20
2016,09,21,02,22,7.20
2016,09,21,02,23,7.20
2016,09,21,02,24,7.20
2016,09,21,02,25,7.20
2016,09,21,02,26,7.20
2016,09,21,02,27,7.20
2016,09,21,02,28,7.20
2016,09,21,02,29,7.10
2016,09,21,02,30,7.10
2016,09,21,02,31,7.10
2016,09,21,02,32,7.10
2016,09,21,02,33,7.10
2016,09,21,02,34,7.10
2016,09,21,02,35,7.10
2016,09,21,02,36,7.00
2016,09,21,02,37,7.00
2016,09,21,02,38,7.00
2016,09,21,02,39,7.00
2016,09,21,02,40,6.90
2016,09,21,02,41,6.90
2016,09,21,02,42,6.90
2016,09,21,02,43,6.90
2016,09,21,02,44,6.90
2016,09,21,02,45,6.90
2016,09,21,02,46,6.90
2016,09,21,02,47,6.90
2016,09,21,02,48,6.90
2016,09,21,02,49,6.90
2016,09,21,02,50,6.90
2016,09,21,02,51,6.90
2016,09,21,02,52,6.90
2016,09,21,02,53,6.90
2016,09,21,02,54,6.90
2016,09,21,02,55,6.90
2016,09,21,02,56,6.90
2016,09,21,02,57,6.90
2016,09,21,02,58,7.00
2016,09,21,02,59,7.00
2016,09,21,03,00,7.00
2016,09,21,03,01,7.00
2016,09,21,03,02,7.00
2016,09,21,03,03,7.00
2016,09,21,03,04,7.00
2016,09,21,03,05,7.00
2016,09,21,03,06,7.00
2016,09,21,03,07,7.00
2016,09,21,03,08,7.00
2016,09,21,03,09,7.00
2016,09,21,03,10,7.00
2016,09,21,03,11,7.00
2016,09,21,03,12,7.00
2016,09,21,03,13,7.00
2016,09,21,03,14,7.00
2016,09,21,03,15,7.00
2016,09,21,03,16,7.00
2016,09,21,03,17,7.00
2016,09,21,03,18,6.90
2016,09,21,03,19,6.90
2016,09,21,03,20,6.90
2016,09,21,03,21,6.90
2016,09,21,03,22,6.90
2016,09,21,03,23,6.80
2016,09,21,03,24,6.80
2016,09,21,03,25,6.80
2016,09,21,03,26,6.80
2016,09,21,03,27,6.70
2016,09,21,03,28,6.70
2016,09,21,03,29,6.70
2016,09,21,03,30,6.60
2016,09,21,03,31,6.60
2016,09,21,03,32,6.60
2016,09,21,03,33,6.60
2016,09,21,03,34,6.60
2016,09,21,03,35,6.60
2016,09,21,03,36,6.50
2016,09,21,03,37,6.50
2016,09,21,03,38,6.50
2016,09,21,03,39,6.50
2016,09,21,03,40,6.50
2016,09,21,03,41,6.50
2016,09,21,03,42,6.40
2016,09,21,03,43,6.40
2016,09,21,03,44,6.40
2016,09,21,03,45,6.40
2016,09,21,03,46,6.40
2016,09,21,03,47,6.40
2016,09,21,03,48,6.40
2016,09,21,03,49,6.40
2016,09,21,03,50,6.40
2016,09,21,03,51,6.40
2016,09,21,03,52,6.40
2016,09,21,03,53,6.40
2016,09,21,03,54,6.40
2016,09,21,03,55,6.30
2016,09,21,03,56,6.30
2016,09,21,03,57,6.30
2016,09,21,03,58,6.30
2016,09,21,03,59,6.30
2016,09,21,04,00,6.20
2016,09,21,04,01,6.20
2016,09,21,04,02,6.20
2016,09,21,04,03,6.20
2016,09,21,04,04,6.20
2016,09,21,04,05,6.20
2016,09,21,04,06,6.20
2016,09,21,04,07,6.20
2016,09,21,04,08,6.20
2016,09,21,04,09,6.20
2016,09,21,04,10,6.20
2016,09,21,04,11,6.20
2016,09,21,04,12,6.20
2016,09,21,04,13,6.10
2016,09,21,04,14,6.10
2016,09,21,04,15,6.10
2016,09,21,04,16,6.10
2016,09,21,04,17,6.10
2016,09,21,04,18,6.10
2016,09,21,04,19,6.10
2016,09,21,04,20,6.10
2016,09,21,04,21,6.10
2016,09,21,04,22,6.10
2016,09,21,04,23,6.10
2016,09,21,04,24,6.00
2016,09,21,04,25,6.00
2016,09,21,04,26,6.00
2016,09,21,04,27,6.10
2016,09,21,04,28,6.10
2016,09,21,04,29,6.10
2016,09,21,04,30,6.20
2016,09,21,04,31,6.20
2016,09,21,04,32,6.20
2016,09,21,04,33,6.30
2016,09,21,04,34,6.30
2016,09,21,04,35,6.30
2016,09,21,04,36,6.30
2016,09,21,04,37,6.20
2016,09,21,04,38,6.20
2016,09,21,04,39,6.20
2016,09,21,04,40,6.20
2016,09,21,04,41,6.20
2016,09,21,04,42,6.20
2016,09,21,04,43,6.10
2016,09,21,04,44,6.10
2016,09,21,04,45,6.10
2016,09,21,04,46,6.10
2016,09,21,04,47,6.10
2016,09,21,04,48,6.00
2016,09,21,04,49,6.00
2016,09,21,04,50,6.00
2016,09,21,04,51,6.00
2016,09,21,04,52,5.90
2016,09,21,04,53,5.90
2016,09,21,04,54,5.90
2016,09,21,04,55,5.90
2016,09,21,04,56,5.90
2016,09,21,04,57,5.80
2016,09,21,04,58,5.80
2016,09,21,04,59,5.80
2016,09,21,05,00,5.80
2016,09,21,05,01,5.80
2016,09,21,05,02,5.70
2016,09,21,05,03,5.70
2016,09,21,05,04,5.70
2016,09,21,05,05,5.70
2016,09,21,05,06,5.70
2016,09,21,05,07,5.70
2016,09,21,05,08,5.70
2016,09,21,05,09,5.70
2016,09,21,05,10,5.70
2016,09,21,05,11,5.70
2016,09,21,05,12,5.70
2016,09,21,05,13,5.70
2016,09,21,05,14,5.70
2016,09,21,05,15,5.80
2016,09,21,05,16,5.80
2016,09,21,05,17,5.80
2016,09,21,05,18,5.80
2016,09,21,05,19,5.80
2016,09,21,05,20,5.80
2016,09,21,05,21,5.80
2016,09,21,05,22,5.80
2016,09,21,05,23,5.80
2016,09,21,05,24,5.80
2016,09,21,05,25,5.80
2016,09,21,05,26,5.90
2016,09,21,05,27,5.90
2016,09,21,05,28,5.90
2016,09,21,05,29,5.90
2016,09,21,05,30,5.90
2016,09,21,05,31,5.90
2016,09,21,05,32,5.90
2016,09,21,05,33,5.80
2016,09,21,05,34,5.80
2016,09,21,05,35,5.80
2016,09,21,05,36,5.80
2016,09,21,05,37,5.80
2016,09,21,05,38,5.80
2016,09,21,05,39,5.80
2016,09,21,05,40,5.80
2016,09,21,05,41,5.80
2016,09,21,05,42,5.70
2016,09,21,05,43,5.70
2016,09,21,05,44,5.70
2016,09,21,05,45,5.70
2016,09,21,05,46,5.70
2016,09,21,05,47,5.70
2016,09,21,05,48,5.60
2016,09,21,05,49,5.60
2016,09,21,05,50,5.60
2016,09,21,05,51,5.60
2016,09,21,05,52,5.60
2016,09,21,05,53,5.50
2016,09,21,05,54,5.50
2016,09,21,05,55,5.50
2016,09,21,05,56,5.50
2016,09,21,05,57,5.50
2016,09,21,05,58,5.50
2016,09,21,05,59,5.50
2016,09,21,06,00,5.50
2016,09,21,06,01,5.40
2016,09,21,06,02,5.40
2016,09,21,06,03,5.40
2016,09,21,06,04,5.40
2016,09,21,06,05,5.30
2016,09,21,06,06,5.30
2016,09,21,06,07,5.30
2016,09,21,06,08,5.30
2016,09,21,06,09,5.30
2016,09,21,06,10,5.30
2016,09,21,06,11,5.30
2016,09,21,06,12,5.30
2016,09,21,06,13,5.20
2016,09,21,06,14,5.20
2016,09,21,06,15,5.20
2016,09,21,06,16,5.20
2016,09,21,06,17,5.20
2016,09,21,06,18,5.20
2016,09,21,06,19,5.20
2016,09,21,06,20,5.20
2016,09,21,06,21,5.20
2016,09,21,06,22,5.20
2016,09,21,06,23,5.20
2016,09,21,06,24,5.20
2016,09,21,06,25,5.20
2016,09,21,06,26,5.20
2016,09,21,06,27,5.20
2016,09,21,06,28,5.20
2016,09,21,06,29,5.20
2016,09,21,06,30,5.20
2016,09,21,06,31,5.20
2016,09,21,06,32,5.20
2016,09,21,06,33,5.20
2016,09,21,06,34,5.20
2016,09,21,06,35,5.20
2016,09,21,06,36,5.30
2016,09,21,06,37,5.30
2016,09,21,06,38,5.30
2016,09,21,06,39,5.30
2016,09,21,06,40,5.30
2016,09,21,06,41,5.30
2016,09,21,06,42,5.30
2016,09,21,06,43,5.30
2016,09,21,06,44,5.30
2016,09,21,06,45,5.20
2016,09,21,06,46,5.20
2016,09,21,06,47,5.10
2016,09,21,06,48,5.00
2016,09,21,06,49,5.00
2016,09,21,06,50,5.00
2016,09,21,06,51,4.90
2016,09,21,06,52,4.90
2016,09,21,06,53,4.90
2016,09,21,06,54,5.00
2016,09,21,06,55,4.90
2016,09,21,06,56,4.90
2016,09,21,06,57,4.90
2016,09,21,06,58,4.90
2016,09,21,06,59,4.90
2016,09,21,07,00,4.90
2016,09,21,07,01,5.00
2016,09,21,07,02,5.00
2016,09,21,07,03,4.90
2016,09,21,07,04,4.90
2016,09,21,07,05,4.90
2016,09,21,07,06,4.90
2016,09,21,07,07,4.90
2016,09,21,07,08,5.00
2016,09,21,07,09,5.10
2016,09,21,07,10,5.10
2016,09,21,07,11,5.20
2016,09,21,07,12,5.20
2016,09,21,07,13,5.20
2016,09,21,07,14,5.20
2016,09,21,07,15,5.20
2016,09,21,07,16,5.20
2016,09,21,07,17,5.20
2016,09,21,07,18,5.20
2016,09,21,07,19,5.20
2016,09,21,07,20,5.20
2016,09,21,07,21,5.20
2016,09,21,07,22,5.20
2016,09,21,07,23,5.20
2016,09,21,07,24,5.10
2016,09,21,07,25,5.10
2016,09,21,07,26,5.10
2016,09,21,07,27,5.10
2016,09,21,07,28,5.10
2016,09,21,07,29,5.10
2016,09,21,07,30,5.20
2016,09,21,07,31,5.20
2016,09,21,07,32,5.20
2016,09,21,07,33,5.20
2016,09,21,07,34,5.20
2016,09,21,07,35,5.20
2016,09,21,07,36,5.20
2016,09,21,07,37,5.20
2016,09,21,07,38,5.20
2016,09,21,07,39,5.20
2016,09,21,07,40,5.20
2016,09,21,07,41,5.20
2016,09,21,07,42,5.20
2016,09,21,07,43,5.20
2016,09,21,07,44,5.20
2016,09,21,07,45,5.20
2016,09,21,07,46,5.20
2016,09,21,07,47,5.20
2016,09,21,07,48,5.20
2016,09,21,07,49,5.20
2016,09,21,07,50,5.30
2016,09,21,07,51,5.30
2016,09,21,07,52,5.40
2016,09,21,07,53,5.50
2016,09,21,07,54,5.50
2016,09,21,07,55,5.60
2016,09,21,07,56,5.60
2016,09,21,07,57,5.60
2016,09,21,07,58,5.70
2016,09,21,07,59,5.70
2016,09,21,08,00,5.70
2016,09,21,08,01,5.80
2016,09,21,08,02,5.90
2016,09,21,08,03,5.90
2016,09,21,08,04,6.00
2016,09,21,08,05,6.10
2016,09,21,08,06,6.10
2016,09,21,08,07,6.20
2016,09,21,08,08,6.30
2016,09,21,08,09,6.40
2016,09,21,08,10,6.50
2016,09,21,08,11,6.50
2016,09,21,08,12,6.50
2016,09,21,08,13,6.50
2016,09,21,08,14,6.60
2016,09,21,08,15,6.60
2016,09,21,08,16,6.70
2016,09,21,08,17,6.70
2016,09,21,08,18,6.80
2016,09,21,08,19,6.80
2016,09,21,08,20,6.90
2016,09,21,08,21,6.90
2016,09,21,08,22,7.00
2016,09,21,08,23,7.10
2016,09,21,08,24,7.30
2016,09,21,08,25,7.40
2016,09,21,08,26,7.40
2016,09,21,08,27,7.50
2016,09,21,08,28,7.50
2016,09,21,08,29,7.60
2016,09,21,08,30,7.60
2016,09,21,08,31,7.70
2016,09,21,08,32,7.80
2016,09,21,08,33,7.90
2016,09,21,08,34,8.00
2016,09,21,08,35,8.00
2016,09,21,08,36,8.10
2016,09,21,08,37,8.20
2016,09,21,08,38,8.30
2016,09,21,08,39,8.40
2016,09,21,08,40,8.50
2016,09,21,08,41,8.60
2016,09,21,08,42,8.60
2016,09,21,08,43,8.70
2016,09,21,08,44,8.80
2016,09,21,08,45,8.90
2016,09,21,08,46,9.00
2016,09,21,08,47,9.10
2016,09,21,08,48,9.20
2016,09,21,08,49,9.30
2016,09,21,08,50,9.30
2016,09,21,08,51,9.40
2016,09,21,08,52,9.50
2016,09,21,08,53,9.60
2016,09,21,08,54,9.70
2016,09,21,08,55,9.80
2016,09,21,08,56,10.00
2016,09,21,08,57,10.10
2016,09,21,08,58,10.30
2016,09,21,08,59,10.40
2016,09,21,09,00,10.50
2016,09,21,09,01,10.60
2016,09,21,09,02,10.70
2016,09,21,09,03,10.80
2016,09,21,09,04,10.90
2016,09,21,09,05,11.00
2016,09,21,09,06,11.10
2016,09,21,09,07,11.20
2016,09,21,09,08,11.20
2016,09,21,09,09,11.30
2016,09,21,09,10,11.30
2016,09,21,09,11,11.40
2016,09,21,09,12,11.50
2016,09,21,09,13,11.50
2016,09,21,09,14,11.60
2016,09,21,09,15,11.70
2016,09,21,09,16,11.70
2016,09,21,09,17,11.80
2016,09,21,09,18,11.90
2016,09,21,09,19,12.00
2016,09,21,09,20,12.00
2016,09,21,09,21,12.10
2016,09,21,09,22,12.20
2016,09,21,09,23,12.20
2016,09,21,09,24,12.30
2016,09,21,09,25,12.40
2016,09,21,09,26,12.50
2016,09,21,09,27,12.60
2016,09,21,09,28,12.70
2016,09,21,09,29,12.80
2016,09,21,09,30,12.90
2016,09,21,09,31,13.00
2016,09,21,09,32,13.00
2016,09,21,09,33,13.10
2016,09,21,09,34,13.20
2016,09,21,09,35,13.30
2016,09,21,09,36,13.30
2016,09,21,09,37,13.40
2016,09,21,09,38,13.40
2016,09,21,09,39,13.50
2016,09,21,09,40,13.50
2016,09,21,09,41,13.60
2016,09,21,09,42,13.60
2016,09,21,09,43,13.70
2016,09,21,09,44,13.80
2016,09,21,09,45,13.90
2016,09,21,09,46,14.00
2016,09,21,09,47,14.10
2016,09,21,09,48,14.10
2016,09,21,09,49,14.20
2016,09,21,09,50,14.20
2016,09,21,09,51,14.20
2016,09,21,09,52,14.20
2016,09,21,09,53,14.20
2016,09,21,09,54,14.20
2016,09,21,09,55,14.20
2016,09,21,09,56,14.10
2016,09,21,09,57,14.10
2016,09,21,09,58,14.10
2016,09,21,09,59,14.10
2016,09,21,10,00,14.10
2016,09,21,10,01,14.20
2016,09,21,10,02,14.20
2016,09,21,10,03,14.20
2016,09,21,10,04,14.30
2016,09,21,10,05,14.40
2016,09,21,10,06,14.50
2016,09,21,10,07,14.60
2016,09,21,10,08,14.70
2016,09,21,10,09,14.80
2016,09,21,10,10,14.80
2016,09,21,10,11,14.90
2016,09,21,10,12,15.00
2016,09,21,10,13,15.00
2016,09,21,10,14,15.10
2016,09,21,10,15,15.10
2016,09,21,10,16,15.10
2016,09,21,10,17,15.20
2016,09,21,10,18,15.20
2016,09,21,10,19,15.20
2016,09,21,10,20,15.20
2016,09,21,10,21,15.30
2016,09,21,10,22,15.30
2016,09,21,10,23,15.40
2016,09,21,10,24,15.50
2016,09,21,10,25,15.60
2016,09,21,10,26,15.70
2016,09,21,10,27,15.80
2016,09,21,10,28,15.80
2016,09,21,10,29,15.80
2016,09,21,10,30,15.90
2016,09,21,10,31,15.90
2016,09,21,10,32,16.00
2016,09,21,10,33,16.10
2016,09,21,10,34,16.10
2016,09,21,10,35,16.10
2016,09,21,10,36,16.10
2016,09,21,10,37,16.20
2016,09,21,10,38,16.20
2016,09,21,10,39,16.30
2016,09,21,10,40,16.30
2016,09,21,10,41,16.30
2016,09,21,10,42,16.30
2016,09,21,10,43,16.30
2016,09,21,10,44,16.30
2016,09,21,10,45,16.40
2016,09,21,10,46,16.40
2016,09,21,10,47,16.50
2016,09,21,10,48,16.50
2016,09,21,10,49,16.60
2016,09,21,10,50,16.60
2016,09,21,10,51,16.70
2016,09,21,10,52,16.80
2016,09,21,10,53,16.90
2016,09,21,10,54,16.90
2016,09,21,10,55,17.00
2016,09,21,10,56,17.00
2016,09,21,10,57,17.00
2016,09,21,10,58,17.00
2016,09,21,10,59,17.00
2016,09,21,11,00,17.00
2016,09,21,11,01,17.00
2016,09,21,11,02,17.00
2016,09,21,11,03,17.10
2016,09,21,11,04,17.20
2016,09,21,11,05,17.20
2016,09,21,11,06,17.20
2016,09,21,11,07,17.30
2016,09,21,11,08,17.20
2016,09,21,11,09,17.20
2016,09,21,11,10,17.10
2016,09,21,11,11,17.10
2016,09,21,11,12,17.10
2016,09,21,11,13,17.10
2016,09,21,11,14,17.10
2016,09,21,11,15,17.10
2016,09,21,11,16,17.20
2016,09,21,11,17,17.10
2016,09,21,11,18,17.00
2016,09,21,11,19,17.00
2016,09,21,11,20,17.00
2016,09,21,11,21,17.00
2016,09,21,11,22,17.00
2016,09,21,11,23,17.00
2016,09,21,11,24,17.00
2016,09,21,11,25,17.10
2016,09,21,11,26,17.10
2016,09,21,11,27,17.20
2016,09,21,11,28,17.20
2016,09,21,11,29,17.10
2016,09,21,11,30,17.00
2016,09,21,11,31,17.00
2016,09,21,11,32,16.90
2016,09,21,11,33,16.90
2016,09,21,11,34,16.90
2016,09,21,11,35,16.80
2016,09,21,11,36,16.80
2016,09,21,11,37,16.80
2016,09,21,11,38,16.80
2016,09,21,11,39,16.80
2016,09,21,11,40,16.90
2016,09,21,11,41,16.90
2016,09,21,11,42,16.90
2016,09,21,11,43,16.90
2016,09,21,11,44,17.00
2016,09,21,11,45,17.00
2016,09,21,11,46,17.10
2016,09,21,11,47,17.10
2016,09,21,11,48,17.20
2016,09,21,11,49,17.30
2016,09,21,11,50,17.30
2016,09,21,11,51,17.40
2016,09,21,11,52,17.40
2016,09,21,11,53,17.40
2016,09,21,11,54,17.30
2016,09,21,11,55,17.30
2016,09,21,11,56,17.20
2016,09,21,11,57,17.10
2016,09,21,11,58,17.10
2016,09,21,11,59,17.10
2016,09,21,12,00,17.10
2016,09,21,12,01,17.20
2016,09,21,12,02,17.20
2016,09,21,12,03,17.20
2016,09,21,12,04,17.20
2016,09,21,12,05,17.30
2016,09,21,12,06,17.40
2016,09,21,12,07,17.50
2016,09,21,12,08,17.60
2016,09,21,12,09,17.70
2016,09,21,12,10,17.80
2016,09,21,12,11,17.80
2016,09,21,12,12,17.90
2016,09,21,12,13,17.90
2016,09,21,12,14,18.00
2016,09,21,12,15,18.00
2016,09,21,12,16,18.00
2016,09,21,12,17,18.10
2016,09,21,12,18,18.10
2016,09,21,12,19,18.10
2016,09,21,12,20,18.00
2016,09,21,12,21,18.00
2016,09,21,12,22,18.00
2016,09,21,12,23,18.00
2016,09,21,12,24,18.00
2016,09,21,12,25,17.90
2016,09,21,12,26,17.90
2016,09,21,12,27,17.90
2016,09,21,12,28,17.90
2016,09,21,12,29,17.90
2016,09,21,12,30,18.00
2016,09,21,12,31,18.00
2016,09,21,12,32,18.00
2016,09,21,12,33,17.90
2016,09,21,12,34,17.90
2016,09,21,12,35,17.90
2016,09,21,12,36,17.90
2016,09,21,12,37,17.90
2016,09,21,12,38,17.90
2016,09,21,12,39,17.90
2016,09,21,12,40,17.90
2016,09,21,12,41,17.90
2016,09,21,12,42,18.00
2016,09,21,12,43,18.00
2016,09,21,12,44,17.90
2016,09,21,12,45,18.00
2016,09,21,12,46,18.00
2016,09,21,12,47,18.00
2016,09,21,12,48,18.10
2016,09,21,12,49,18.20
2016,09,21,12,50,18.30
2016,09,21,12,51,18.40
2016,09,21,12,52,18.50
2016,09,21,12,53,18.50
2016,09,21,12,54,18.60
2016,09,21,12,55,18.50
2016,09,21,12,56,18.50
2016,09,21,12,57,18.50
2016,09,21,12,58,18.30
2016,09,21,12,59,18.10
2016,09,21,13,00,18.10
2016,09,21,13,01,18.20
2016,09,21,13,02,18.10
2016,09,21,13,03,18.00
2016,09,21,13,04,17.90
2016,09,21,13,05,18.00
2016,09,21,13,06,18.00
2016,09,21,13,07,18.10
2016,09,21,13,08,18.20
2016,09,21,13,09,18.20
2016,09,21,13,10,18.20
2016,09,21,13,11,18.20
2016,09,21,13,12,18.20
2016,09,21,13,13,18.20
2016,09,21,13,14,18.10
2016,09,21,13,15,18.00
2016,09,21,13,16,18.00
2016,09,21,13,17,18.10
2016,09,21,13,18,18.10
2016,09,21,13,19,18.10
2016,09,21,13,20,18.10
2016,09,21,13,21,18.00
2016,09,21,13,22,18.10
2016,09,21,13,23,18.10
2016,09,21,13,24,18.10
2016,09,21,13,25,18.20
2016,09,21,13,26,18.30
2016,09,21,13,27,18.40
2016,09,21,13,28,18.40
2016,09,21,13,29,18.50
2016,09,21,13,30,18.50
2016,09,21,13,31,18.50
2016,09,21,13,32,18.50
2016,09,21,13,33,18.50
2016,09,21,13,34,18.60
2016,09,21,13,35,18.40
2016,09,21,13,36,18.20
2016,09,21,13,37,18.20
2016,09,21,13,38,18.20
2016,09,21,13,39,18.30
2016,09,21,13,40,18.40
2016,09,21,13,41,18.60
2016,09,21,13,42,18.70
2016,09,21,13,43,18.80
2016,09,21,13,44,18.90
2016,09,21,13,45,19.00
2016,09,21,13,46,19.10
2016,09,21,13,47,19.10
2016,09,21,13,48,19.10
2016,09,21,13,49,19.00
2016,09,21,13,50,18.90
2016,09,21,13,51,18.80
2016,09,21,13,52,18.80
2016,09,21,13,53,18.70
2016,09,21,13,54,18.60
2016,09,21,13,55,18.60
2016,09,21,13,56,18.50
2016,09,21,13,57,18.50
2016,09,21,13,58,18.50
2016,09,21,13,59,18.50
2016,09,21,14,00,18.60
2016,09,21,14,01,18.60
2016,09,21,14,02,18.70
2016,09,21,14,03,18.70
2016,09,21,14,04,18.70
2016,09,21,14,05,18.80
2016,09,21,14,06,18.80
2016,09,21,14,07,18.90
2016,09,21,14,08,18.90
2016,09,21,14,09,18.90
2016,09,21,14,10,19.00
2016,09,21,14,11,19.00
2016,09,21,14,12,19.00
2016,09,21,14,13,19.00
2016,09,21,14,14,18.90
2016,09,21,14,15,18.90
2016,09,21,14,16,18.90
2016,09,21,14,17,18.90
2016,09,21,14,18,18.90
2016,09,21,14,19,18.90
2016,09,21,14,20,18.90
2016,09,21,14,21,19.00
2016,09,21,14,22,19.00
2016,09,21,14,23,19.10
2016,09,21,14,24,19.20
2016,09,21,14,25,19.20
2016,09,21,14,26,19.20
2016,09,21,14,27,19.20
2016,09,21,14,28,19.30
2016,09,21,14,29,19.40
2016,09,21,14,30,19.40
2016,09,21,14,31,19.50
2016,09,21,14,32,19.50
2016,09,21,14,33,19.50
2016,09,21,14,34,19.50
2016,09,21,14,35,19.50
2016,09,21,14,36,19.50
2016,09,21,14,37,19.50
2016,09,21,14,38,19.50
2016,09,21,14,39,19.50
2016,09,21,14,40,19.40
2016,09,21,14,41,19.40
2016,09,21,14,42,19.30
2016,09,21,14,43,19.30
2016,09,21,14,44,19.30
2016,09,21,14,45,19.30
2016,09,21,14,46,19.30
2016,09,21,14,47,19.40
2016,09,21,14,48,19.40
2016,09,21,14,49,19.50
2016,09,21,14,50,19.50
2016,09,21,14,51,19.50
2016,09,21,14,52,19.50
2016,09,21,14,53,19.50
2016,09,21,14,54,19.60
2016,09,21,14,55,19.60
2016,09,21,14,56,19.60
2016,09,21,14,57,19.60
2016,09,21,14,58,19.60
2016,09,21,14,59,19.60
2016,09,21,15,00,19.50
2016,09,21,15,01,19.60
2016,09,21,15,02,19.60
2016,09,21,15,03,19.60
2016,09,21,15,04,19.60
2016,09,21,15,05,19.60
2016,09,21,15,06,19.50
2016,09,21,15,07,19.60
2016,09,21,15,08,19.60
2016,09,21,15,09,19.70
2016,09,21,15,10,19.60
2016,09,21,15,11,19.40
2016,09,21,15,12,19.30
2016,09,21,15,13,19.10
2016,09,21,15,14,19.10
2016,09,21,15,15,19.00
2016,09,21,15,16,19.00
2016,09,21,15,17,19.00
2016,09,21,15,18,19.10
2016,09,21,15,19,19.10
2016,09,21,15,20,19.10
2016,09,21,15,21,19.10
2016,09,21,15,22,19.10
2016,09,21,15,23,19.00
2016,09,21,15,24,18.90
2016,09,21,15,25,18.80
2016,09,21,15,26,18.70
2016,09,21,15,27,18.60
2016,09,21,15,28,18.60
2016,09,21,15,29,18.60
2016,09,21,15,30,18.70
2016,09,21,15,31,18.80
2016,09,21,15,32,18.80
2016,09,21,15,33,19.00
2016,09,21,15,34,19.10
2016,09,21,15,35,19.20
2016,09,21,15,36,19.20
2016,09,21,15,37,19.20
2016,09,21,15,38,19.20
2016,09,21,15,39,19.30
2016,09,21,15,40,19.20
2016,09,21,15,41,19.10
2016,09,21,15,42,19.00
2016,09,21,15,43,18.90
2016,09,21,15,44,18.80
2016,09,21,15,45,18.70
2016,09,21,15,46,18.70
2016,09,21,15,47,18.60
2016,09,21,15,48,18.60
2016,09,21,15,49,18.60
2016,09,21,15,50,18.50
2016,09,21,15,51,18.60
2016,09,21,15,52,18.60
2016,09,21,15,53,18.60
2016,09,21,15,54,18.60
2016,09,21,15,55,18.60
2016,09,21,15,56,18.60
2016,09,21,15,57,18.50
2016,09,21,15,58,18.40
2016,09,21,15,59,18.30
2016,09,21,16,00,18.30
2016,09,21,16,01,18.30
2016,09,21,16,02,18.30
2016,09,21,16,03,18.40
2016,09,21,16,04,18.50
2016,09,21,16,05,18.50
2016,09,21,16,06,18.60
2016,09,21,16,07,18.60
2016,09,21,16,08,18.70
2016,09,21,16,09,18.80
2016,09,21,16,10,18.90
2016,09,21,16,11,19.00
2016,09,21,16,12,19.00
2016,09,21,16,13,19.10
2016,09,21,16,14,19.10
2016,09,21,16,15,19.10
2016,09,21,16,16,19.10
2016,09,21,16,17,19.20
2016,09,21,16,18,19.20
2016,09,21,16,19,19.20
2016,09,21,16,20,19.20
2016,09,21,16,21,19.20
2016,09,21,16,22,19.20
2016,09,21,16,23,19.20
2016,09,21,16,24,19.20
2016,09,21,16,25,19.20
2016,09,21,16,26,19.10
2016,09,21,16,27,19.00
2016,09,21,16,28,19.10
2016,09,21,16,29,19.00
2016,09,21,16,30,19.00
2016,09,21,16,31,18.90
2016,09,21,16,32,18.90
2016,09,21,16,33,18.90
2016,09,21,16,34,18.90
2016,09,21,16,35,18.90
2016,09,21,16,36,18.90
2016,09,21,16,37,18.90
2016,09,21,16,38,18.90
2016,09,21,16,39,18.90
2016,09,21,16,40,19.00
2016,09,21,16,41,19.00
2016,09,21,16,42,19.10
2016,09,21,16,43,19.20
2016,09,21,16,44,19.20
2016,09,21,16,45,19.10
2016,09,21,16,46,19.10
2016,09,21,16,47,19.10
2016,09,21,16,48,19.10
2016,09,21,16,49,19.10
2016,09,21,16,50,19.10
2016,09,21,16,51,19.10
2016,09,21,16,52,19.00
2016,09,21,16,53,19.10
2016,09,21,16,54,19.10
2016,09,21,16,55,19.10
2016,09,21,16,56,19.20
2016,09,21,16,57,19.20
2016,09,21,16,58,19.20
2016,09,21,16,59,19.20
2016,09,21,17,00,19.20
2016,09,21,17,01,19.10
2016,09,21,17,02,19.10
2016,09,21,17,03,19.10
2016,09,21,17,04,19.10
2016,09,21,17,05,19.20
2016,09,21,17,06,19.20
2016,09,21,17,07,19.30
2016,09,21,17,08,19.30
2016,09,21,17,09,19.30
2016,09,21,17,10,19.30
2016,09,21,17,11,19.30
2016,09,21,17,12,19.30
2016,09,21,17,13,19.30
2016,09,21,17,14,19.30
2016,09,21,17,15,19.20
2016,09,21,17,16,19.20
2016,09,21,17,17,19.10
2016,09,21,17,18,19.10
2016,09,21,17,19,19.00
2016,09,21,17,20,18.80
2016,09,21,17,21,18.80
2016,09,21,17,22,18.80
2016,09,21,17,23,18.80
2016,09,21,17,24,18.80
2016,09,21,17,25,18.80
2016,09,21,17,26,18.80
2016,09,21,17,27,18.80
2016,09,21,17,28,18.90
2016,09,21,17,29,18.90
2016,09,21,17,30,19.00
2016,09,21,17,31,19.00
2016,09,21,17,32,19.10
2016,09,21,17,33,19.10
2016,09,21,17,34,19.00
2016,09,21,17,35,19.00
2016,09,21,17,36,18.90
2016,09,21,17,37,18.90
2016,09,21,17,38,18.90
2016,09,21,17,39,18.90
2016,09,21,17,40,18.80
2016,09,21,17,41,18.90
2016,09,21,17,42,18.80